Orbital Elements at Epoch 2459200.5 (2020-Dec-17.0) TDB
Reference: JPL 20 (heliocentric ecliptic J2000)
Element | Value | Uncertainty (1-sigma) | Units |
e | .1202310368613068 | 4.7859e-08 | |
a | 2.324788552039786 | 7.5517e-09 | au |
q | 2.045276813944747 | 1.1268e-07 | au |
i | 2.710167113637576 | 4.3063e-06 | deg |
node | 13.42516915135103 | 9.3226e-05 | deg |
peri | 126.5371791800387 | 9.5129e-05 | deg |
M | 340.3543658558673 | 1.6654e-05 | deg |
tp | 2459271.154066974489 (2021-Feb-25.65406697) | 5.9844e-05 | TDB |
period | 1294.713315141952 3.54 | 6.3085e-06 1.727e-08 | d yr |
n | .2780538330684657 | 1.3548e-09 | deg/d |
Q | 2.604300290134826 | 8.4597e-09 | au |
|
| | Orbit Determination Parameters
Additional Information
|